Location: Cherryland
(37.6794°N, 122.1033°W)
Time: 14:31:23
(UTC+00:00)

BREEZE-M DEB (TANK) - Pass Details

Date: 14 December 2025
Orbit: 330 x 14637 km, 49.5° (Epoch: 17 January)

Event Time Altitude Azimuth Distance (km) Brightness Sun altitude
Exits shadow 13:54:12 47° 284° (WNW) 464 2.5 -15.7°
Maximum altitude 13:54:34 55° 326° (NW) 410 2.4 -15.6°
Drops below altitude 10° 13:56:53 10° 47° (NE) 1,299 5.6 -15.2°
Sets 13:58:58 0° 52° (NE) 2,385 7.1 -14.8°
